Time,TemperatureF,DewpointF,PressureIn,WindDirection,WindDirectionDegrees,WindSpeedMPH,WindSpeedGustMPH,Humidity,HourlyPrecipIn,Conditions,Clouds,dailyrainin,SoftwareType,DateUTC
2013-04-27 00:01:00,49.0,34.0,-100.00,SE,131,3.0,4.0,57,-99.99,,,-99.99,,2013-04-27 07:01:00,
2013-04-27 00:11:00,49.0,34.0,-100.00,ESE,120,3.0,4.0,57,-99.99,,,-99.99,,2013-04-27 07:11:00,
2013-04-27 00:21:00,49.0,34.0,-100.00,SSE,157,1.0,3.0,57,-99.99,,,-99.99,,2013-04-27 07:21:00,
2013-04-27 00:31:00,49.0,34.0,-100.00,SE,133,3.0,4.0,57,-99.99,,,-99.99,,2013-04-27 07:31:00,
2013-04-27 00:42:00,49.0,35.0,-100.00,SE,126,4.0,4.0,58,-99.99,,,-99.99,,2013-04-27 07:42:00,
2013-04-27 00:52:00,49.0,34.0,-100.00,ESE,113,3.0,4.0,58,-99.99,,,-99.99,,2013-04-27 07:52:00,
2013-04-27 01:01:00,49.0,35.0,-100.00,SE,131,3.0,4.0,58,-99.99,,,-99.99,,2013-04-27 08:01:00,
2013-04-27 01:11:00,48.0,34.0,-100.00,ESE,120,3.0,4.0,58,-99.99,,,-99.99,,2013-04-27 08:11:00,
2013-04-27 01:21:00,48.0,34.0,-100.00,SSE,151,2.0,3.0,59,-99.99,,,-99.99,,2013-04-27 08:21:00,
2013-04-27 01:33:00,48.0,34.0,-100.00,SE,128,0.0,1.0,59,-99.99,,,-99.99,,2013-04-27 08:33:00,
2013-04-27 01:41:00,48.0,35.0,-100.00,North,-999,0.0,0.0,60,-99.99,,,-99.99,,2013-04-27 08:41:00,
2013-04-27 01:51:00,48.0,35.0,-100.00,SE,140,1.0,2.0,60,-99.99,,,-99.99,,2013-04-27 08:51:00,
2013-04-27 02:01:00,48.0,35.0,-100.00,South,172,2.0,2.0,60,-99.99,,,-99.99,,2013-04-27 09:01:00,
2013-04-27 02:11:00,47.0,34.0,-100.00,ESE,121,2.0,3.0,59,-99.99,,,-99.99,,2013-04-27 09:11:00,
2013-04-27 02:21:00,47.0,34.0,-100.00,SE,143,0.0,2.0,60,-99.99,,,-99.99,,2013-04-27 09:21:00,
2013-04-27 02:33:00,47.0,34.0,-100.00,North,-999,0.0,0.0,61,-99.99,,,-99.99,,2013-04-27 09:33:00,
2013-04-27 02:42:00,46.0,34.0,-100.00,North,-999,0.0,0.0,62,-99.99,,,-99.99,,2013-04-27 09:42:00,
2013-04-27 02:53:00,46.0,34.0,-100.00,North,-999,0.0,0.0,62,-99.99,,,-99.99,,2013-04-27 09:53:00,
2013-04-27 03:02:00,46.0,34.0,-100.00,North,-999,0.0,0.0,62,-99.99,,,-99.99,,2013-04-27 10:02:00,
2013-04-27 03:12:00,45.0,34.0,-100.00,North,-999,0.0,0.0,65,-99.99,,,-99.99,,2013-04-27 10:12:00,
2013-04-27 03:22:00,45.0,34.0,-100.00,North,-999,0.0,0.0,65,-99.99,,,-99.99,,2013-04-27 10:22:00,
2013-04-27 03:32:00,45.0,34.0,-100.00,SSE,168,1.0,2.0,65,-99.99,,,-99.99,,2013-04-27 10:32:00,
2013-04-27 03:42:00,45.0,34.0,-100.00,South,179,0.0,1.0,65,-99.99,,,-99.99,,2013-04-27 10:42:00,
2013-04-27 03:52:00,45.0,34.0,-100.00,North,-999,0.0,0.0,66,-99.99,,,-99.99,,2013-04-27 10:52:00,
2013-04-27 04:02:00,45.0,35.0,-100.00,SE,131,0.0,0.0,68,-99.99,,,-99.99,,2013-04-27 11:02:00,
2013-04-27 04:11:00,44.0,34.0,-100.00,SE,145,0.0,0.0,68,-99.99,,,-99.99,,2013-04-27 11:11:00,
2013-04-27 04:22:00,44.0,34.0,-100.00,North,-999,0.0,0.0,68,-99.99,,,-99.99,,2013-04-27 11:22:00,
2013-04-27 04:31:00,44.0,34.0,-100.00,North,-999,0.0,0.0,68,-99.99,,,-99.99,,2013-04-27 11:31:00,
2013-04-27 04:41:00,44.0,34.0,-100.00,North,-999,0.0,0.0,68,-99.99,,,-99.99,,2013-04-27 11:41:00,
2013-04-27 04:52:00,44.0,34.0,-100.00,North,-999,0.0,0.0,69,-99.99,,,-99.99,,2013-04-27 11:52:00,
2013-04-27 05:01:00,44.0,35.0,-100.00,North,-999,0.0,0.0,70,-99.99,,,-99.99,,2013-04-27 12:01:00,
2013-04-27 05:11:00,44.0,35.0,-100.00,North,-999,0.0,0.0,71,-99.99,,,-99.99,,2013-04-27 12:11:00,
2013-04-27 05:21:00,44.0,36.0,-100.00,North,-999,0.0,0.0,72,-99.99,,,-99.99,,2013-04-27 12:21:00,
2013-04-27 05:32:00,43.0,35.0,-100.00,North,-999,0.0,0.0,72,-99.99,,,-99.99,,2013-04-27 12:32:00,
2013-04-27 05:42:00,43.0,35.0,-100.00,North,-999,0.0,0.0,72,-99.99,,,-99.99,,2013-04-27 12:42:00,
2013-04-27 05:52:00,43.0,34.0,-100.00,North,-999,0.0,0.0,71,-99.99,,,-99.99,,2013-04-27 12:52:00,
2013-04-27 06:01:00,43.0,34.0,-100.00,North,-999,0.0,0.0,71,-99.99,,,-99.99,,2013-04-27 13:01:00,
2013-04-27 06:11:00,43.0,35.0,-100.00,North,-999,0.0,0.0,73,-99.99,,,-99.99,,2013-04-27 13:11:00,
2013-04-27 06:21:00,43.0,35.0,-100.00,North,-999,0.0,0.0,74,-99.99,,,-99.99,,2013-04-27 13:21:00,
2013-04-27 06:32:00,43.0,36.0,-100.00,North,-999,0.0,0.0,76,-99.99,,,-99.99,,2013-04-27 13:32:00,
2013-04-27 06:41:00,43.0,35.0,-100.00,SE,133,0.0,0.0,74,-99.99,,,-99.99,,2013-04-27 13:41:00,
2013-04-27 06:52:00,42.0,35.0,-100.00,North,-999,0.0,0.0,76,-99.99,,,-99.99,,2013-04-27 13:52:00,
2013-04-27 07:02:00,42.0,35.0,-100.00,North,-999,0.0,0.0,75,-99.99,,,-99.99,,2013-04-27 14:02:00,
2013-04-27 07:11:00,42.0,35.0,-100.00,North,-999,0.0,0.0,76,-99.99,,,-99.99,,2013-04-27 14:11:00,
2013-04-27 07:21:00,43.0,38.0,-100.00,North,-999,0.0,0.0,81,-99.99,,,-99.99,,2013-04-27 14:21:00,
2013-04-27 07:31:00,42.0,37.0,-100.00,North,-999,0.0,0.0,81,-99.99,,,-99.99,,2013-04-27 14:31:00,
2013-04-27 07:41:00,42.0,36.0,-100.00,North,-999,0.0,0.0,80,-99.99,,,-99.99,,2013-04-27 14:41:00,
2013-04-27 07:52:00,42.0,36.0,-100.00,ESE,117,0.0,0.0,79,-99.99,,,-99.99,,2013-04-27 14:52:00,
2013-04-27 08:01:00,42.0,37.0,-100.00,North,-999,0.0,0.0,81,-99.99,,,-99.99,,2013-04-27 15:01:00,
2013-04-27 08:11:00,42.0,36.0,-100.00,North,-999,0.0,0.0,80,-99.99,,,-99.99,,2013-04-27 15:11:00,
2013-04-27 08:21:00,43.0,37.0,-100.00,North,-999,0.0,0.0,79,-99.99,,,-99.99,,2013-04-27 15:21:00,
2013-04-27 08:33:00,45.0,38.0,-100.00,North,-999,0.0,0.0,75,-99.99,,,-99.99,,2013-04-27 15:33:00,
2013-04-27 08:42:00,46.0,38.0,-100.00,North,-999,0.0,0.0,73,-99.99,,,-99.99,,2013-04-27 15:42:00,
2013-04-27 08:52:00,46.0,37.0,-100.00,WNW,298,0.0,0.0,70,-99.99,,,-99.99,,2013-04-27 15:52:00,
2013-04-27 09:02:00,46.0,37.0,-100.00,North,-999,0.0,0.0,70,-99.99,,,-99.99,,2013-04-27 16:02:00,
2013-04-27 09:13:00,46.0,37.0,-100.00,North,-999,0.0,0.0,72,-99.99,,,-99.99,,2013-04-27 16:13:00,
2013-04-27 09:22:00,46.0,38.0,-100.00,North,-999,0.0,0.0,73,-99.99,,,-99.99,,2013-04-27 16:22:00,
2013-04-27 09:32:00,46.0,37.0,-100.00,North,-999,0.0,0.0,72,-99.99,,,-99.99,,2013-04-27 16:32:00,
2013-04-27 09:42:00,47.0,38.0,-100.00,North,-999,0.0,0.0,72,-99.99,,,-99.99,,2013-04-27 16:42:00,
2013-04-27 09:53:00,47.0,39.0,-100.00,North,-999,0.0,0.0,73,-99.99,,,-99.99,,2013-04-27 16:53:00,
2013-04-27 10:02:00,48.0,40.0,-100.00,WNW,287,0.0,0.0,75,-99.99,,,-99.99,,2013-04-27 17:02:00,
2013-04-27 10:11:00,48.0,40.0,-100.00,WNW,295,0.0,0.0,73,-99.99,,,-99.99,,2013-04-27 17:11:00,
2013-04-27 10:22:00,48.0,40.0,-100.00,WNW,294,0.0,0.0,75,-99.99,,,-99.99,,2013-04-27 17:22:00,
2013-04-27 10:31:00,48.0,40.0,-100.00,North,-999,0.0,0.0,75,-99.99,,,-99.99,,2013-04-27 17:31:00,
2013-04-27 10:42:00,48.0,40.0,-100.00,North,-999,0.0,0.0,75,-99.99,,,-99.99,,2013-04-27 17:42:00,
2013-04-27 10:52:00,49.0,41.0,-100.00,North,-999,0.0,0.0,75,-99.99,,,-99.99,,2013-04-27 17:52:00,
2013-04-27 11:02:00,49.0,40.0,-100.00,North,-999,0.0,0.0,72,-99.99,,,-99.99,,2013-04-27 18:02:00,
2013-04-27 11:11:00,50.0,41.0,-100.00,North,-999,0.0,0.0,72,-99.99,,,-99.99,,2013-04-27 18:11:00,
2013-04-27 11:21:00,51.0,40.0,-100.00,North,-999,0.0,0.0,67,-99.99,,,-99.99,,2013-04-27 18:21:00,
2013-04-27 11:32:00,51.0,40.0,-100.00,North,-999,0.0,0.0,67,-99.99,,,-99.99,,2013-04-27 18:32:00,
2013-04-27 11:41:00,52.0,41.0,-100.00,North,-999,0.0,0.0,67,-99.99,,,-99.99,,2013-04-27 18:41:00,
2013-04-27 11:51:00,52.0,41.0,-100.00,North,-999,0.0,0.0,67,-99.99,,,-99.99,,2013-04-27 18:51:00,
2013-04-27 12:02:00,52.0,41.0,-100.00,North,-999,0.0,0.0,66,-99.99,,,-99.99,,2013-04-27 19:02:00,
2013-04-27 12:11:00,54.0,43.0,-100.00,WNW,302,0.0,4.0,67,-99.99,,,-99.99,,2013-04-27 19:11:00,
2013-04-27 12:21:00,53.0,42.0,-100.00,North,-999,0.0,0.0,66,-99.99,,,-99.99,,2013-04-27 19:21:00,
2013-04-27 12:32:00,54.0,42.0,-100.00,North,-999,0.0,0.0,64,-99.99,,,-99.99,,2013-04-27 19:32:00,
2013-04-27 12:42:00,54.0,41.0,-100.00,NW,312,2.0,4.0,61,-99.99,,,-99.99,,2013-04-27 19:42:00,
2013-04-27 12:52:00,54.0,42.0,-100.00,NNW,330,2.0,3.0,64,-99.99,,,-99.99,,2013-04-27 19:52:00,
2013-04-27 13:02:00,55.0,42.0,-100.00,NW,325,1.0,3.0,62,-99.99,,,-99.99,,2013-04-27 20:02:00,
2013-04-27 13:11:00,55.0,38.0,-100.00,North,-999,0.0,0.0,53,-99.99,,,-99.99,,2013-04-27 20:11:00,
2013-04-27 13:21:00,55.0,43.0,-100.00,North,-999,0.0,0.0,63,-99.99,,,-99.99,,2013-04-27 20:21:00,
2013-04-27 13:32:00,56.0,40.0,-100.00,NW,312,2.0,3.0,55,-99.99,,,-99.99,,2013-04-27 20:32:00,
2013-04-27 13:41:00,56.0,44.0,-100.00,NW,323,2.0,3.0,63,-99.99,,,-99.99,,2013-04-27 20:41:00,
2013-04-27 13:52:00,57.0,37.0,-100.00,NW,304,1.0,4.0,48,-99.99,,,-99.99,,2013-04-27 20:52:00,
2013-04-27 14:02:00,58.0,38.0,-100.00,North,-999,0.0,0.0,48,-99.99,,,-99.99,,2013-04-27 21:02:00,
2013-04-27 14:11:00,57.0,38.0,-100.00,WNW,284,1.0,4.0,49,-99.99,,,-99.99,,2013-04-27 21:11:00,
2013-04-27 14:21:00,60.0,39.0,-100.00,NW,319,0.0,0.0,46,-99.99,,,-99.99,,2013-04-27 21:21:00,
2013-04-27 14:32:00,60.0,39.0,-100.00,North,-999,0.0,0.0,45,-99.99,,,-99.99,,2013-04-27 21:32:00,
2013-04-27 14:42:00,63.0,38.0,-100.00,North,-999,0.0,0.0,40,-99.99,,,-99.99,,2013-04-27 21:42:00,
2013-04-27 14:53:00,64.0,36.0,-100.00,North,-999,0.0,0.0,35,-99.99,,,-99.99,,2013-04-27 21:53:00,
2013-04-27 15:02:00,65.0,27.0,-100.00,WNW,298,2.0,2.0,23,-99.99,,,-99.99,,2013-04-27 22:02:00,
2013-04-27 15:12:00,66.0,27.0,-100.00,West,275,2.0,3.0,23,-99.99,,,-99.99,,2013-04-27 22:12:00,
2013-04-27 15:22:00,67.0,39.0,-100.00,WNW,284,0.0,0.0,36,-99.99,,,-99.99,,2013-04-27 22:22:00,
2013-04-27 15:32:00,68.0,25.0,-100.00,NW,305,2.0,4.0,20,-99.99,,,-99.99,,2013-04-27 22:32:00,
2013-04-27 15:42:00,68.0,28.0,-100.00,NW,312,2.0,3.0,22,-99.99,,,-99.99,,2013-04-27 22:42:00,
2013-04-27 15:52:00,68.0,27.0,-100.00,NW,308,2.0,4.0,21,-99.99,,,-99.99,,2013-04-27 22:52:00,
2013-04-27 16:02:00,68.0,27.0,-100.00,NW,308,2.0,4.0,21,-99.99,,,-99.99,,2013-04-27 23:02:00,
2013-04-27 16:11:00,68.0,27.0,-100.00,NW,308,2.0,4.0,21,-99.99,,,-99.99,,2013-04-27 23:11:00,
2013-04-27 16:22:00,68.0,27.0,-100.00,NW,308,2.0,4.0,21,-99.99,,,-99.99,,2013-04-27 23:22:00,